User: anonymous   Login
Location: Unspecified
(0.0000°N, 0.0000°E)
Time: 06:19:56
(UTC+00:00)
Language:

CZ-3B DEB - Orbit

View from above orbital plane
View from above orbital plane
View from above satellite
View from above satellite

Ground track
Ground track

The orbit data is extracted from the following two-line orbital elements,

1 40186U 11077K   23036.43127459 -.00000263  00000-0  00000-0 0  9996
2 40186  26.5561  32.8328 7309070  96.1137   7.3653  1.88676962 75936
Epoch (UTC): 05 February 2023 10:21:02
Eccentricity: 0.7309070
inclination: 26.5561°
perigee height: 1066 km
apogee height: 41506 km
right ascension of ascending node: 32.8328°
argument of perigee: 96.1137°
revolutions per day: 1.88676962
mean anomaly at epoch: 7.3653°
orbit number at epoch: 7593

The dashed part of the orbit path shows where the satellite is in the earth's shadow,  

DLR